Location: Bothwell
(41.7170°N, 112.2589°W)
Time: 10:45:14
(UTC+00:00)

ACS3 Solar Sail - Visible Passes

Search period start: 18 April 2026 00:00
Search period end: 28 April 2026 00:00
Orbit: 872 x 975 km, 97.2° (Epoch: 17 April)

Date Brightness Start Highest point End Pass type
(mag) Time Alt. Az. Time Alt. Az. Time Alt. Az.
18 Apr 3.7 07:31:10 10° NE 07:34:00 20° ENE 07:34:00 20° ENE visible
18 Apr 2.3 09:12:39 10° N 09:17:33 50° NW 09:17:33 50° NW visible
19 Apr 3.5 07:40:16 10° NE 07:43:37 24° ENE 07:43:37 24° ENE visible
19 Apr 2.4 09:22:10 10° N 09:27:10 44° NW 09:27:10 44° NW visible
20 Apr 3.2 07:49:21 10° NNE 07:53:09 29° ENE 07:53:09 29° ENE visible
20 Apr 2.5 09:31:36 10° N 09:36:42 38° WNW 09:36:42 38° WNW visible
21 Apr 3.0 07:58:25 10° NNE 08:02:36 35° ENE 08:02:36 35° ENE visible
21 Apr 2.7 09:41:00 10° N 09:46:08 32° WNW 09:46:08 32° WNW visible
22 Apr 2.7 08:07:26 10° NNE 08:11:58 42° ENE 08:11:58 42° ENE visible
22 Apr 2.9 09:50:22 10° N 09:55:21 27° WNW 09:55:29 27° WNW visible
23 Apr 2.4 08:16:25 10° NNE 08:21:15 50° NE 08:21:15 50° NE visible
23 Apr 3.1 09:59:42 10° NNW 10:04:18 23° WNW 10:04:45 23° WNW visible
24 Apr 2.2 08:25:21 10° NNE 08:30:26 59° NE 08:30:26 59° NE visible
24 Apr 3.3 10:09:00 10° NNW 10:13:10 20° WNW 10:13:56 19° WNW visible
25 Apr 4.1 06:55:06 10° ENE 06:56:01 11° ENE 06:56:01 11° ENE visible
25 Apr 2.0 08:34:15 10° NNE 08:39:32 68° NNE 08:39:32 68° NNE visible
25 Apr 3.5 10:18:18 10° NNW 10:21:55 17° WNW 10:23:02 16° WNW visible
26 Apr 3.9 07:02:55 10° NE 07:05:02 14° ENE 07:05:02 14° ENE visible
26 Apr 1.9 08:43:04 10° N 08:48:32 72° N 08:48:32 72° N visible
26 Apr 3.6 10:27:39 10° NNW 10:30:35 14° WNW 10:32:02 13° WNW visible
27 Apr 3.7 07:11:03 10° NE 07:13:58 17° ENE 07:13:58 17° ENE visible
27 Apr 1.9 08:51:50 10° N 08:57:28 68° NW 08:57:28 68° NW visible
27 Apr 3.8 10:37:13 10° NW 10:39:08 12° WNW 10:40:57 10° WNW visible
